Torna al catalogo

COSMOS 644

AttivoMilitareLEO
NORAD 7268·PAYLOAD·🇷🇺 Russia

Lanciato Apr 23, 1974 da Plesetsk Cosmodrome

Loading…

Prossimi Passaggi (prossime 24 ore)

TLE

AggiornatoSource: Space-Track

Epoca: Sep 14, 2026, 10:35 UTC

1 07268U 74024D   26257.44111459 -.00000027  00000-0 -58703-4 0  9999
2 07268  74.0143 252.9883 0093927 152.7621 207.8409 12.63696198416962

Traccia COSMOS 644 in tempo reale con AllMySat

Download on the App Store